[[{"header":{"parameterUnit":"m.s-1","parameterCategory":1,"la1":30.2992,"la2":30.254,"lo1":-89.0895,"lo2":-89.0443,"dy":0.0025,"dx":0.0025,"nx":19,"ny":19,"refTime":"2026-04-01T21:00:00:Z","depth":0,"parameterNumber":2,"parameterNumberName":"U-component_of_WINDS"},"data":[0,0,0,-4.6853,-4.6857,-4.708,-4.7081,-4.7362,-4.7365,0,0,0,0,0,0,0,0,0,0,0,-4.6784,-4.6786,-4.6852,-4.6858,-4.708,-4.7081,-4.7362,-4.7365,0,0,0,0,0,0,0,0,0,0,0,-4.6783,-4.6785,-4.6787,-4.6859,-4.708,-4.7081,-4.7361,-4.7195,0,0,0,0,0,0,0,0,0,0,-4.6979,-4.6912,-4.6785,-4.6787,-4.686,-4.708,-4.7082,-4.7187,-4.7205,-4.7259,0,-4.7306,0,-4.734,-4.7383,-4.7384,0,0,0,-4.686,-4.6897,-4.696,-4.6788,-4.6862,-4.708,-4.6981,-4.7197,-4.7218,-4.7284,-4.731,-4.7321,-4.7345,-4.7385,-4.7386,-4.7691,-4.7692,0,0,-4.6848,-4.6822,-4.6945,-4.6973,-4.6938,-4.6973,-4.6987,-4.7209,-4.7237,-4.7311,-4.7328,-4.7349,-4.7387,-4.7389,-4.769,-4.7691,0,0,0,-4.6811,-4.6813,-4.6871,-4.6961,-4.7002,-4.698,-4.6996,-4.7227,-4.7248,-4.7331,-4.7353,-4.7388,-4.7392,-4.7688,-4.769,-4.7728,0,0,0,-4.6804,-4.6792,-4.6866,-4.6852,-4.6997,-4.7117,-4.7009,-4.7233,-4.7259,-4.7351,-4.7388,-4.7394,-4.7687,-4.7689,-4.7724,-4.775,0,0,0,-4.677,-4.6788,-4.6819,-4.685,-4.6945,-4.7114,-4.7148,-4.7239,-4.7272,-4.7384,-4.7395,-4.7686,-4.7689,-4.772,-4.7744,-4.7821,0,0,0,-4.6727,-4.6851,-4.6819,-4.6967,-4.6943,-4.7137,-4.7147,-4.7293,-4.7394,-4.739,-4.7687,-4.769,-4.7719,-4.774,-4.7816,-4.7878,-4.7903,0,0,-4.6869,-4.6867,-4.6956,-4.6934,-4.7126,-4.7105,-4.7304,-4.7421,-4.7456,-4.7611,-4.7618,-4.7725,-4.7743,-4.782,-4.8052,-4.8071,0,0,0,-4.6992,-4.7055,-4.7112,-4.7206,-4.7299,-4.738,-4.747,-4.7514,-4.7646,-4.753,-4.7776,-4.7788,-4.7834,-4.7864,-4.788,-4.7921,-4.7704,-4.7703,-4.7703,-4.7153,-4.7191,-4.734,-4.7405,-4.7497,-4.7589,-4.7667,-4.7741,-4.7753,-4.7811,-4.7856,-4.7992,-4.8027,-4.804,-4.8081,-4.7895,-4.7895,-4.7895,-4.7895,-4.7362,-4.7456,-4.747,-4.7618,-4.7658,-4.7784,-4.7878,-4.7882,-4.8005,-4.7961,-4.8004,-4.7949,-4.8059,-4.8097,-4.7898,-4.7898,-4.7897,-4.7897,-4.7897,-4.7469,-4.7521,-4.7572,-4.7713,-4.7818,-4.7881,-4.7998,-4.8032,-4.8064,-4.8106,-4.8156,-4.8155,-4.8157,-4.8128,-4.8129,-4.8129,-4.813,-4.813,-4.813,-4.7558,-4.7616,-4.771,-4.7819,-4.7885,-4.7975,-4.807,-4.8136,-4.8217,-4.8231,-4.8232,-4.8237,-4.8064,-4.8018,-4.8138,-4.8136,-4.8135,-4.8135,-4.8134,-4.775,-4.7713,-4.7857,-4.7923,-4.8055,-4.8156,-4.8198,-4.8329,-4.8389,-4.8445,-4.8443,-4.831,-4.8311,-4.8298,-4.826,-4.8435,-4.8435,-4.8435,-4.8435,-4.7838,-4.7843,-4.7998,-4.81,-4.8205,-4.8258,-4.8421,-4.8497,-4.857,-4.8609,-4.8589,-4.8543,-4.8529,-4.8538,-4.852,-4.8484,-4.8713,-4.8713,-4.8714,-4.7957,-4.7973,-4.8104,-4.8175,-4.8281,-4.8371,-4.8525,-4.8643,-4.8718,-4.8726,-4.864,-4.8628,-4.8554,-4.8528,-4.8529,-4.8501,-4.8437,0,0]},{"header":{"parameterUnit":"m.s-1","parameterCategory":1,"la1":30.2992,"la2":30.254,"lo1":-89.0895,"lo2":-89.0443,"dy":0.0025,"dx":0.0025,"nx":19,"ny":19,"refTime":"2026-04-01T21:00:00:Z","depth":0,"parameterNumber":3,"parameterNumberName":"V-component_of_WINDS"},"data":[0,0,0,3.1225,3.1227,3.1292,3.1292,3.1386,3.1387,0,0,0,0,0,0,0,0,0,0,0,3.1213,3.1214,3.1225,3.1227,3.1292,3.1292,3.1386,3.1387,0,0,0,0,0,0,0,0,0,0,0,3.1213,3.1214,3.1215,3.1227,3.1292,3.1292,3.1386,3.1333,0,0,0,0,0,0,0,0,0,0,3.1268,3.1264,3.1214,3.1215,3.1228,3.1292,3.1292,3.133,3.1336,3.1362,0,3.1387,0,3.1389,3.1394,3.1395,0,0,0,3.1221,3.1259,3.127,3.1215,3.1229,3.1292,3.1261,3.1333,3.134,3.137,3.1388,3.1392,3.1391,3.1395,3.1396,3.1566,3.1567,0,0,3.1218,3.1228,3.1265,3.1275,3.1266,3.1259,3.1263,3.1337,3.1358,3.1389,3.1394,3.1392,3.1396,3.1397,3.1565,3.1566,0,0,0,3.1211,3.1226,3.1235,3.1271,3.1282,3.1261,3.1266,3.1354,3.1357,3.1395,3.1393,3.1396,3.1398,3.1564,3.1566,3.1629,0,0,0,3.1209,3.1222,3.1234,3.1241,3.1281,3.1319,3.1281,3.1351,3.1359,3.1393,3.1397,3.1399,3.1563,3.1565,3.1625,3.1657,0,0,0,3.1207,3.1222,3.1234,3.1242,3.127,3.1318,3.1324,3.1353,3.1359,3.1395,3.1399,3.1562,3.1564,3.1621,3.1651,3.1707,0,0,0,3.1207,3.1288,3.1235,3.1326,3.127,3.1357,3.1323,3.1387,3.1426,3.1397,3.1563,3.1565,3.162,3.1647,3.1703,3.1755,3.1778,0,0,3.1315,3.1301,3.1354,3.1309,3.1408,3.1346,3.1455,3.1479,3.1472,3.1535,3.1539,3.1627,3.1651,3.1706,3.1903,3.1921,0,0,0,3.1392,3.143,3.1454,3.1492,3.1514,3.1536,3.1542,3.1552,3.1605,3.1507,3.1661,3.1675,3.1707,3.1732,3.1747,3.1774,3.1577,3.1577,3.1577,3.1559,3.1548,3.1635,3.1632,3.167,3.1678,3.1707,3.1721,3.1696,3.1734,3.1752,3.1873,3.1903,3.1914,3.1943,3.1779,3.1779,3.1779,3.1779,3.1717,3.177,3.1739,3.1812,3.18,3.1861,3.1873,3.1854,3.1909,3.1858,3.1885,3.183,3.1935,3.1959,3.1784,3.1783,3.1783,3.1782,3.1782,3.1826,3.1849,3.1861,3.1917,3.1961,3.1956,3.2011,3.1998,3.1985,3.2012,3.2031,3.203,3.2028,3.2022,3.2023,3.2023,3.2024,3.2024,3.2024,3.1934,3.1945,3.1994,3.2027,3.2051,3.2081,3.2092,3.2115,3.2137,3.2123,3.2123,3.2096,3.1947,3.191,3.2031,3.2029,3.2029,3.2028,3.2028,3.2098,3.206,3.2136,3.216,3.2199,3.2245,3.2228,3.2277,3.2294,3.2322,3.2291,3.2183,3.2167,3.2155,3.2124,3.2292,3.2292,3.2292,3.2292,3.219,3.2182,3.2258,3.2299,3.2337,3.233,3.2417,3.2427,3.2431,3.2442,3.2415,3.2374,3.2362,3.2353,3.2337,3.2308,3.2519,3.2519,3.2519,3.2292,3.2287,3.2363,3.2369,3.2399,3.2425,3.2507,3.2555,3.2551,3.2528,3.245,3.244,3.2373,3.2351,3.2326,3.23,3.2247,0,0]}]]